�������l�o���
Date,Time,MP-1(��Sv/h),MP-2(��Sv/h),MP-3(��Sv/h),MP-4(��Sv/h),MP-5(��Sv/h),MP-6(��Sv/h),MP-7(��Sv/h),MP-8(��Sv/h),����,����(m/s),���J
2016/03/01,00:00,1.642,2.600,2.625,2.435,2.574,0.698,1.264,1.101,�k��,8.9,��
2016/03/01,00:10,1.645,2.600,2.626,2.434,2.577,0.701,1.265,1.101,�k��,10.5,��
2016/03/01,00:20,1.643,2.598,2.626,2.434,2.576,0.701,1.263,1.099,�k��,9.0,��
2016/03/01,00:30,1.640,2.605,2.628,2.431,2.579,0.697,1.266,1.100,�k��,10.3,��
2016/03/01,00:40,1.642,2.603,2.627,2.436,2.579,0.697,1.264,1.102,�k��,9.7,��
2016/03/01,00:50,1.643,2.602,2.628,2.432,2.577,0.699,1.264,1.099,�k�k��,11.4,��
2016/03/01,01:00,1.642,2.600,2.630,2.437,2.574,0.697,1.263,1.099,�k�k��,8.4,��
2016/03/01,01:10,1.643,2.603,2.627,2.432,2.577,0.697,1.266,1.100,�k��,9.3,��
2016/03/01,01:20,1.642,2.598,2.632,2.436,2.578,0.697,1.265,1.100,�k��,9.9,��
2016/03/01,01:30,1.642,2.600,2.627,2.437,2.580,0.699,1.265,1.100,�k��,9.5,��
2016/03/01,01:40,1.640,2.605,2.632,2.436,2.574,0.698,1.263,1.101,���k��,4.5,��
2016/03/01,01:50,1.643,2.600,2.631,2.438,2.578,0.698,1.264,1.101,���k��,4.4,��
2016/03/01,02:00,1.645,2.602,2.628,2.437,2.580,0.700,1.265,1.100,���k��,6.0,��
2016/03/01,02:10,1.643,2.602,2.630,2.435,2.582,0.701,1.265,1.100,���k��,3.9,��
2016/03/01,02:20,1.643,2.602,2.629,2.433,2.577,0.700,1.264,1.100,�k��,2.8,��
2016/03/01,02:30,1.642,2.600,2.627,2.436,2.577,0.701,1.265,1.100,�k�k��,2.2,��
2016/03/01,02:40,1.642,2.598,2.627,2.433,2.582,0.700,1.262,1.098,�k�k��,2.5,��
2016/03/01,02:50,1.640,2.595,2.627,2.433,2.579,0.699,1.264,1.099,�k�k��,4.2,��
2016/03/01,03:00,1.642,2.600,2.625,2.437,2.579,0.701,1.265,1.098,�k��,6.5,��
2016/03/01,03:10,1.643,2.597,2.625,2.435,2.572,0.702,1.265,1.099,�k��,7.5,��
2016/03/01,03:20,1.642,2.598,2.626,2.438,2.576,0.701,1.265,1.100,���k��,7.9,��
2016/03/01,03:30,1.640,2.598,2.630,2.438,2.578,0.700,1.265,1.099,���k��,7.6,��
2016/03/01,03:40,1.640,2.600,2.631,2.435,2.581,0.700,1.263,1.100,���k��,8.9,��
2016/03/01,03:50,1.645,2.602,2.627,2.435,2.579,0.698,1.263,1.101,���k��,12.7,��
2016/03/01,04:00,1.645,2.602,2.631,2.439,2.579,0.697,1.266,1.099,���k��,11.4,��
2016/03/01,04:10,1.643,2.603,2.629,2.440,2.577,0.697,1.264,1.099,��,9.0,��
2016/03/01,04:20,1.642,2.605,2.629,2.439,2.577,0.695,1.263,1.099,��,7.1,��
2016/03/01,04:30,1.642,2.603,2.630,2.438,2.579,0.698,1.263,1.100,��,8.2,��
2016/03/01,04:40,1.640,2.603,2.628,2.432,2.578,0.696,1.263,1.100,��,6.2,��
2016/03/01,04:50,1.642,2.603,2.631,2.435,2.576,0.697,1.264,1.101,��,6.1,��
2016/03/01,05:00,1.643,2.600,2.631,2.438,2.582,0.695,1.264,1.100,���쐼,7.2,��
2016/03/01,05:10,1.642,2.602,2.630,2.439,2.579,0.696,1.266,1.100,��,11.6,��
2016/03/01,05:20,1.642,2.603,2.631,2.437,2.581,0.698,1.265,1.101,��,9.5,��
2016/03/01,05:30,1.643,2.603,2.630,2.437,2.578,0.695,1.264,1.098,��,9.4,��
2016/03/01,05:40,1.640,2.607,2.628,2.433,2.578,0.695,1.266,1.098,���쐼,8.8,��
2016/03/01,05:50,1.640,2.602,2.629,2.439,2.577,0.694,1.262,1.099,��,8.2,��
2016/03/01,06:00,1.642,2.602,2.628,2.437,2.577,0.694,1.265,1.099,��,6.8,��
2016/03/01,06:10,1.642,2.598,2.626,2.435,2.577,0.694,1.264,1.100,��,6.7,��
2016/03/01,06:20,1.642,2.600,2.627,2.438,2.579,0.695,1.263,1.101,��,8.1,��
2016/03/01,06:30,1.643,2.600,2.624,2.439,2.580,0.693,1.265,1.099,��,9.0,��
2016/03/01,06:40,1.642,2.600,2.632,2.438,2.577,0.693,1.263,1.100,��,8.8,��
2016/03/01,06:50,1.640,2.603,2.631,2.438,2.580,0.694,1.262,1.100,��,8.2,��
2016/03/01,07:00,1.642,2.608,2.629,2.436,2.575,0.695,1.264,1.099,��,8.9,��
2016/03/01,07:10,1.642,2.607,2.633,2.440,2.582,0.695,1.266,1.099,��,7.9,��
2016/03/01,07:20,1.643,2.603,2.629,2.439,2.581,0.692,1.265,1.101,���k��,5.2,��
2016/03/01,07:30,1.642,2.602,2.632,2.438,2.584,0.691,1.263,1.101,��,5.4,��
2016/03/01,07:40,1.643,2.602,2.629,2.440,2.578,0.695,1.264,1.099,���k��,3.7,��
2016/03/01,07:50,1.643,2.603,2.631,2.439,2.581,0.693,1.263,1.100,���k��,3.6,��
2016/03/01,08:00,1.643,2.607,2.629,2.439,2.582,0.694,1.264,1.099,�k��,2.0,��
2016/03/01,08:10,1.645,2.605,2.633,2.442,2.581,0.696,1.266,1.099,���k��,1.7,��
2016/03/01,08:20,1.645,2.605,2.633,2.440,2.581,0.695,1.265,1.101,��,2.3,��
2016/03/01,08:30,1.643,2.602,2.635,2.442,2.581,0.697,1.265,1.100,���k��,2.3,��
2016/03/01,08:40,1.642,2.612,2.639,2.439,2.586,0.696,1.265,1.100,�k�k��,5.2,��
2016/03/01,08:50,1.640,2.612,2.638,2.442,2.589,0.697,1.265,1.101,�k��,7.8,��
2016/03/01,09:00,1.643,2.612,2.639,2.442,2.589,0.698,1.266,1.101,���k��,10.2,��
2016/03/01,09:10,1.643,2.607,2.637,2.443,2.588,0.698,1.266,1.101,���k��,8.7,��
2016/03/01,09:20,1.643,2.612,2.636,2.445,2.585,0.697,1.266,1.102,�k��,8.2,��
2016/03/01,09:30,1.643,2.610,2.639,2.444,2.589,0.696,1.266,1.102,�k��,13.0,��
2016/03/01,09:40,1.645,2.612,2.637,2.446,2.588,0.697,1.263,1.103,���k��,10.0,��
2016/03/01,09:50,1.642,2.613,2.640,2.447,2.588,0.699,1.265,1.102,���k��,7.7,��
2016/03/01,10:00,1.643,2.617,2.643,2.444,2.592,0.698,1.263,1.100,�k��,10.1,��
2016/03/01,10:10,1.642,2.618,2.639,2.445,2.596,0.698,1.265,1.103,���k��,7.3,��
2016/03/01,10:20,1.642,2.617,2.640,2.443,2.596,0.699,1.267,1.099,���k��,6.4,��
2016/03/01,10:30,-,2.617,2.643,2.446,2.592,0.699,1.265,1.101,���k��,6.9,��
2016/03/01,10:40,-,2.615,2.642,2.447,2.591,0.701,1.264,1.102,���k��,6.0,��
2016/03/01,10:50,-,2.612,2.643,2.444,2.601,0.698,1.264,1.102,�k��,6.4,��
2016/03/01,11:00,-,2.618,2.645,2.444,2.598,0.701,1.262,1.100,�k��,6.0,��
2016/03/01,11:10,-,2.617,2.646,2.448,2.601,0.697,1.262,1.103,�k�k��,2.6,��
2016/03/01,11:20,-,2.615,2.646,2.448,2.606,0.701,1.263,1.104,���k��,1.7,��
2016/03/01,11:30,-,2.615,2.644,2.446,2.603,0.701,1.261,1.104,�k�k��,1.2,��
2016/03/01,11:40,-,2.617,2.643,2.448,2.603,0.699,1.264,1.102,���k��,2.2,��
2016/03/01,11:50,-,2.618,2.648,2.451,2.603,0.699,1.263,1.104,�k��,4.4,��
2016/03/01,12:00,-,2.620,2.648,2.449,2.604,0.700,1.264,1.101,���k��,4.9,��
2016/03/01,12:10,-,2.622,2.651,2.453,2.608,0.699,1.265,1.101,���쐼,7.0,��
2016/03/01,12:20,-,2.625,2.652,2.451,2.607,0.697,1.264,1.102,��,7.3,��
2016/03/01,12:30,-,2.627,2.653,2.453,2.613,0.699,1.264,1.103,��,7.7,��
2016/03/01,12:40,-,2.627,2.651,2.451,2.612,0.700,1.264,1.104,�k��,3.3,��
2016/03/01,12:50,-,2.627,2.655,2.455,2.615,0.700,1.267,1.104,���쓌,2.0,��
2016/03/01,13:00,-,2.625,2.654,2.451,2.613,0.701,1.266,1.104,-,CALM,��
2016/03/01,13:10,-,2.628,2.657,2.454,2.611,0.698,1.265,1.101,��,7.7,��
2016/03/01,13:20,1.650,2.627,2.659,2.453,2.613,0.701,1.266,1.101,���쐼,8.1,��
2016/03/01,13:30,1.648,2.627,2.654,2.455,2.611,0.699,1.265,1.102,���쐼,9.8,��
2016/03/01,13:40,1.648,2.627,2.656,2.454,2.608,0.698,1.266,1.102,��,7.7,��
2016/03/01,13:50,1.648,2.622,2.658,2.453,2.612,0.699,1.265,1.104,��,8.2,��
2016/03/01,14:00,1.650,2.625,2.658,2.461,2.614,0.698,1.265,1.103,��,11.3,��
2016/03/01,14:10,1.652,2.620,2.660,2.455,2.621,0.699,1.265,1.104,��,8.1,��
2016/03/01,14:20,1.652,2.618,2.660,2.459,2.615,0.702,1.266,1.101,��,9.1,��
2016/03/01,14:30,1.653,2.613,2.660,2.456,2.618,0.701,1.266,1.102,��,8.9,��
2016/03/01,14:40,1.657,2.607,2.665,2.454,2.615,0.702,1.265,1.101,��,8.7,��
2016/03/01,14:50,1.652,2.618,2.663,2.454,2.621,0.702,1.266,1.099,��,7.9,��
2016/03/01,15:00,1.652,2.625,2.661,2.459,2.618,0.702,1.265,1.099,��,10.9,��
2016/03/01,15:10,1.652,2.628,2.660,2.457,2.617,0.701,1.264,1.103,��,9.0,��
2016/03/01,15:20,1.652,2.628,2.660,2.457,2.621,0.703,1.264,1.102,���k��,4.5,��
2016/03/01,15:30,1.648,2.623,2.657,2.456,2.618,0.701,1.260,1.100,���k��,3.2,��
2016/03/01,15:40,1.652,2.623,2.658,2.459,2.619,0.701,1.265,1.103,��,7.5,��
2016/03/01,15:50,1.650,2.623,2.660,2.458,2.616,0.702,1.264,1.103,���쐼,7.0,��
2016/03/01,16:00,1.650,2.630,2.661,2.455,2.621,0.702,1.264,1.104,��,7.5,��
2016/03/01,16:10,1.650,2.630,2.659,2.455,2.615,0.703,1.268,1.103,���k��,8.2,��
2016/03/01,16:20,1.650,2.632,2.658,2.457,2.622,0.701,1.266,1.103,���k��,6.4,��
2016/03/01,16:30,1.650,2.628,2.658,2.457,2.622,0.703,1.264,1.103,���k��,5.2,��
2016/03/01,16:40,1.650,2.632,2.655,2.451,2.621,0.704,1.268,1.102,���k��,4.3,��
2016/03/01,16:50,1.647,2.632,2.658,2.457,2.621,0.704,1.269,1.103,�k�k��,4.3,��
2016/03/01,17:00,1.648,2.632,2.658,2.460,2.622,0.702,1.271,1.102,�k��,2.6,��
2016/03/01,17:10,1.648,2.630,2.662,2.459,2.622,0.702,1.268,1.103,�k,2.9,��
2016/03/01,17:20,1.648,2.633,2.659,2.456,2.624,0.701,1.268,1.104,�k,2.6,��
2016/03/01,17:30,1.648,2.633,2.657,2.455,2.620,0.700,1.268,1.103,�k,3.7,��
2016/03/01,17:40,1.648,2.630,2.656,2.455,2.623,0.701,1.269,1.101,�k�k��,3.7,��
2016/03/01,17:50,1.647,2.632,2.656,2.456,2.620,0.700,1.267,1.103,�k�k��,2.8,��
2016/03/01,18:00,1.642,2.632,2.657,2.454,2.617,0.700,1.266,1.102,�k�k��,2.0,��
2016/03/01,18:10,1.647,2.625,2.658,2.455,2.619,0.701,1.267,1.102,�k�k��,2.0,��
2016/03/01,18:20,1.647,2.625,2.656,2.453,2.619,0.700,1.265,1.102,�k��,1.7,��
2016/03/01,18:30,1.647,2.625,2.658,2.451,2.623,0.700,1.265,1.103,�k�k��,1.9,��
2016/03/01,18:40,1.647,2.628,2.655,2.451,2.617,0.701,1.268,1.102,���k��,1.7,��
2016/03/01,18:50,1.647,2.623,2.650,2.450,2.618,0.698,1.263,1.100,-,CALM,��
2016/03/01,19:00,1.643,2.627,2.652,2.450,2.617,0.701,1.265,1.104,���쐼,1.2,��
2016/03/01,19:10,1.647,2.623,2.655,2.452,2.615,0.699,1.265,1.101,���k��,2.5,��
2016/03/01,19:20,1.645,2.627,2.653,2.448,2.619,0.696,1.264,1.100,���k��,3.3,��
2016/03/01,19:30,1.643,2.627,2.651,2.453,2.618,0.698,1.266,1.102,���k��,3.8,��
2016/03/01,19:40,1.643,2.627,2.653,2.449,2.616,0.698,1.265,1.101,���k��,2.9,��
2016/03/01,19:50,1.643,2.625,2.649,2.448,2.617,0.698,1.266,1.102,�k��,2.8,��
2016/03/01,20:00,1.645,2.627,2.650,2.451,2.615,0.699,1.266,1.100,�k��,2.0,��
2016/03/01,20:10,1.642,2.625,2.651,2.446,2.615,0.701,1.265,1.098,��,2.5,��
2016/03/01,20:20,1.643,2.625,2.655,2.451,2.616,0.700,1.266,1.101,��,3.0,��
2016/03/01,20:30,1.642,2.623,2.654,2.450,2.616,0.699,1.264,1.101,���쐼,1.5,��
2016/03/01,20:40,1.647,2.625,2.651,2.451,2.614,0.700,1.264,1.100,���쐼,2.3,��
2016/03/01,20:50,1.643,2.622,2.651,2.450,2.617,0.697,1.264,1.099,���쐼,1.9,��
2016/03/01,21:00,1.642,2.625,2.648,2.450,2.617,0.698,1.263,1.100,���쐼,2.0,��
2016/03/01,21:10,1.640,2.625,2.649,2.447,2.616,0.698,1.265,1.100,�쐼,2.3,��
2016/03/01,21:20,1.642,2.625,2.649,2.449,2.618,0.700,1.264,1.101,���쐼,1.9,��
2016/03/01,21:30,1.643,2.625,2.648,2.445,2.615,0.699,1.265,1.102,��,1.1,��
2016/03/01,21:40,1.643,2.622,2.650,2.447,2.611,0.700,1.266,1.098,��,1.2,��
2016/03/01,21:50,1.645,2.625,2.648,2.446,2.613,0.701,1.262,1.101,���k��,1.7,��
2016/03/01,22:00,1.643,2.623,2.651,2.453,2.617,0.699,1.265,1.102,���쐼,0.9,��
2016/03/01,22:10,1.640,2.625,2.650,2.448,2.616,0.699,1.265,1.098,�k�k��,0.6,��
2016/03/01,22:20,1.642,2.622,2.648,2.446,2.616,0.699,1.263,1.101,���k��,1.2,��
2016/03/01,22:30,1.642,2.623,2.649,2.448,2.616,0.696,1.264,1.099,���쐼,0.8,��
2016/03/01,22:40,1.640,2.623,2.650,2.448,2.612,0.699,1.265,1.100,��,1.1,��
2016/03/01,22:50,1.642,2.622,2.651,2.446,2.615,0.699,1.264,1.100,��쐼,1.4,��
2016/03/01,23:00,1.642,2.622,2.650,2.451,2.609,0.697,1.265,1.097,��쐼,2.2,��
2016/03/01,23:10,1.645,2.623,2.649,2.448,2.613,0.699,1.262,1.100,��쐼,2.0,��
2016/03/01,23:20,1.643,2.623,2.649,2.449,2.616,0.698,1.262,1.099,��,2.3,��
2016/03/01,23:30,1.640,2.623,2.647,2.446,2.613,0.697,1.263,1.100,��,2.5,��
2016/03/01,23:40,1.640,2.623,2.647,2.447,2.614,0.700,1.264,1.099,��,3.6,��
2016/03/01,23:50,1.643,2.623,2.650,2.449,2.611,0.700,1.265,1.101,��쓌,3.1,��
